Location: Carnoy
(49.9849°N, 2.7558°E)
Time: 22:00:38
(UTC+00:00)

Okean-O - Pass Details

Date: 24 January 2020
Orbit: 639 x 640 km, 98.2° (Epoch: 16 February)

Event Time Altitude Azimuth Distance (km) Brightness Sun altitude
Rises 17:02:37 0° 147° (SSE) 2,936 5.9 -5.7°
Reaches altitude 10° 17:04:52 10° 142° (SE) 2,031 5.1 -6.0°
Maximum altitude 17:09:06 47° 69° (ENE) 857 2.9 -6.6°
Drops below altitude 10° 17:13:22 10° 356° (N) 2,045 5.1 -7.3°
Sets 17:15:38 0° 351° (N) 2,959 5.9 -7.6°
